Regional Weather Roundup
Issued by NWS

Home | Current Version | Previous Version | Text Only | Print | Product List | Glossary Off
Versions: 1 2 3 4 5 6 7 8 9 10 11 12 13 14 15 16 17 18 19 20 21 22 23 24 25 26 27 28 29 30 31 32 33 34 35 36 37 38 39 40 41 42 43 44 45 46 47 48 49 50

000
ASUS43 KDTX 260510
RWRMI
MICHIGAN HOURLY REGIONAL WEATHER ROUNDUP
NATIONAL WEATHER SERVICE DETROIT/PONTIAC MI
100 AM EDT SUN OCT 26 2014

NOTE: "FAIR" INDICATES FEW OR NO CLOUDS BELOW 12,000 FEET WITH NO
SIGNIFICANT WEATHER AND/OR OBSTRUCTION TO VISIBILITY.

MIZ047>049-052>055-059>063-066>070-074>076-081>083-260600-
SOUTHEAST LOWER MICHIGAN

CITY           SKY/WX    TMP DP  RH WIND       PRES   REMARKS
ADRIAN         CLEAR     51  32  48 NW8       29.87S
ALMA           CLEAR     49  30  48 W9        29.85S
ANN ARBOR      CLEAR     52  30  43 NW9       29.83S
BAD AXE        CLEAR     43  36  77 W7        29.78R
CARO           CLEAR     43  34  70 W6        29.81R
DETROIT CITY   CLEAR     57  31  37 NW10G17   29.81R
DETROIT        CLEAR     51  33  50 W10       29.83R
FLINT          CLEAR     50  34  54 NW12      29.84S
GROSSE ILE     CLEAR     52  34  50 W8        29.81S
HILLSDALE      CLEAR     51  33  48 NW9       29.87F
HOWELL         CLEAR     48  31  52 W8        29.85R

CITY           SKY/WX    TMP DP  RH WIND       PRES   REMARKS
JACKSON        CLEAR     51  32  48 W9        29.86S
LAMBERTVILLE   CLEAR     52  32  46 CALM      29.86S
LANSING        CLEAR     49  31  49 W9        29.87R
LAPEER         FAIR      49  32  51 NW7       29.81S
MASON          CLEAR     48  34  57 NW8       29.86S
MONROE         CLEAR     48  34  57 W9        29.82S
MT. CLEMENS    CLEAR     54  31  42 NW12G21   29.77R
PONTIAC        CLEAR     52  31  44 NW15      29.81R
PORT HOPE        N/A     51  33  50 W10G20    29.74S
PORT HURON     CLEAR     50  34  53 NW8       29.78R
TRI CITIES     CLEAR     48  32  53 W8        29.83S
TROY           CLEAR     55  29  37 NW12G17   29.82S
SAGINAW HB     CLEAR     46  32  57 W8        29.82S
$$
MIZ043>046-050>051-056>058-064>065-071>073-077>080-260600-
SOUTHWEST LOWER MICHIGAN

CITY           SKY/WX    TMP DP  RH WIND       PRES   REMARKS
BATTLE CREEK   CLEAR     53  32  44 NW9       29.90S
BENTON HARBOR  CLEAR     55  39  54 NW12      29.93S
BIG RAPIDS     CLEAR     47  37  66 W5        29.86S
COLDWATER      CLEAR     46  33  61 W6        29.90S
FREMONT        FAIR      47  31  52 NW5       29.88R
HOLLAND        CLEAR     58  37  45 NW14G23   29.91S
GRAND RAPIDS   CLEAR     54  34  46 W12       29.88S
IONIA          FAIR      50  32  49 NW8       29.87R
KALAMAZOO      CLEAR     54  32  43 NW9       29.90S
LUDINGTON      CLEAR     51  40  67 NW7       29.89R
MARSHALL       FAIR      51  32  48 W7G20     29.88S
MOUNT PLEASANT CLEAR     47  32  56 W6        29.83S
MUSKEGON       CLEAR     56  37  49 NW12      29.89S
SOUTH HAVEN    CLEAR     57  39  51 NW10G23   29.92S
$$
MIZ016>042-260600-
NORTHERN LOWER MICHIGAN

CITY           SKY/WX    TMP DP  RH WIND       PRES   REMARKS
ALPENA         CLEAR     49  33  54 NW14G25   29.71R
BEAVER ISLAND  CLEAR     51  37  57 NW12G17   29.79S
BELLAIRE       CLEAR     52  33  47 NW8G18    29.81R
CADILLAC       CLEAR     48  31  52 W15       29.82S
CHARLEVOIX     CLEAR     52  37  57 NW13G23   29.83R
FRANKFORT      CLEAR     53  33  47 NW10G17   29.86R
GAYLORD        CLEAR     48  31  51 VRB7G20   29.77R
GRAYLING       CLEAR     49  31  48 W10G24    29.79S
HARBOR SPRINGS CLEAR     51  33  51 W9G23     29.77S
HOUGHTON LAKE  CLEAR     48  31  51 NW13      29.80S
MANISTEE       CLEAR     52  34  50 NW14      29.87S
OSCODA         CLEAR     45  33  62 W9        29.73S
PELLSTON       CLEAR     50  35  56 NW18G31   29.76R
TRAVERSE CITY  CLEAR     52  32  46 NW13      29.82S
$$
MIZ007>008-015-260600-
EASTERN UPPER MICHIGAN

CITY           SKY/WX    TMP DP  RH WIND       PRES   REMARKS
KINROSS        PTCLDY    46  36  66 NW22G30   29.70S
MACKINAC ISLAN CLEAR     48  35  60 NW13G23   29.74S
NEWBERRY       CLEAR     46  35  66 NW16G26   29.76S
S. S. MARIE    PTCLDY    47  37  68 NW15G31   29.68R
MUNISING         N/A     52  34  50 NW15G29   29.82R
$$
MIZ004>006-011>014-085-260600-
CENTRAL UPPER MICHIGAN

CITY           SKY/WX    TMP DP  RH WIND       PRES   REMARKS
MANISTIQUE     CLEAR     48  32  53 NW15G22   29.80S
ESCANABA       CLEAR     48  27  43 NW12G17   29.84S
MENOMINEE      CLEAR     50  25  37 NW6       29.88R
SAWYER-GWINN   CLEAR     46  30  52 NW12      29.84R
$$
MIZ001>003-009>011-084-260600-
WESTERN UPPER MICHIGAN

CITY           SKY/WX    TMP DP  RH WIND       PRES   REMARKS
IRON MOUNTAIN  CLEAR     47  27  45 NW14      29.88R
HOUGHTON       CLEAR     46  33  60 W16       29.85R
COPPER HARBOR    N/A     47  38  71 N16       29.83R
IRONWOOD       CLEAR     45  30  57 W8        29.93S
$$

ABBREVIATIONS USED IN REMARKS
   TC - TEMPERATURE IN CELSIUS
  WCI - WIND CHILL INDEX
   HX - HEAT INDEX
  VSB - VISIBILITY




USA.gov is the U.S. government's official web portal to all federal, state and local government web resources and services.